Wind_Speed
49 49 49 49 50 51 52 53 53 53 53 52 52 52 52 52 51 51 51 51 51 51 51 52 55 59 62 62 62 63 64 65 65 64 66 70 70 70 70 69 67 66 64 63 62 61 59 58 58 59 59 60 62 63 64 66 67 68 70 70 71 73 75 76 75 74 71 68 66 64 63 62 62 61 59 57 57 57 57 55 53 52 51 49 49 49 48 45
47 47 46 47 47 49 50 51 53 54 54 54 54 53 53 53 53 52 52 52 51 51 51 52 53 55 59 61 62 62 62 63 64 64 66 67 67 69 71 70 69 69 68 66 64 62 60 58 57 57 57 57 58 59 60 61 62 64 65 67 69 71 74 75 75 73 70 68 66 65 64 64 63 62 60 58 58 58 57 55 54 52 51 50 50 50 48 46
47 48 48 47 47 47 48 49 50 52 53 54 55 55 54 54 54 54 53 53 53 52 52 53 53 53 56 59 61 62 62 62 62 64 65 65 65 67 69 70 70 70 69 68 66 64 62 60 58 57 56 56 56 56 56 57 58 60 61 63 66 69 71 73 73 71 69 67 67 66 65 65 64 63 62 60 59 58 57 55 54 53 52 51 51 50 49 48
50 50 50 49 49 48 48 48 48 49 50 52 54 55 55 55 55 55 54 54 54 54 54 54 53 53 53 55 58 61 62 62 62 64 65 65 66 66 67 69 70 70 71 70 68 66 63 61 60 59 57 56 56 55 54 55 56 57 58 61 63 66 67 68 68 67 66 66 66 66 66 65 65 64 63 62 61 60 58 56 54 53 52 52 52 50 50 49
53 53 52 52 52 51 49 49 49 49 48 49 51 53 54 55 56 56 56 55 55 55 55 54 55 54 54 54 55 58 61 62 62 63 64 65 66 66 65 67 68 70 71 70 69 67 65 63 62 60 59 58 56 55 54 54 54 54 57 59 61 62 62 62 62 62 62 63 63 64 65 65 65 64 64 64 62 61 59 57 55 54 53 53 52 50 50 50
55 56 55 55 55 54 52 51 51 50 49 48 49 50 52 54 56 56 57 57 56 56 55 55 56 55 55 54 53 55 58 60 62 64 64 64 66 66 65 65 66 68 69 70 69 68 67 65 64 63 61 60 58 56 55 54 53 53 55 56 58 59 57 56 57 57 57 58 59 60 61 63 64 64 64 64 63 62 60 58 56 55 54 53 52 51 52 51
56 57 58 58 58 57 56 54 53 52 52 50 49 49 50 52 54 56 57 57 57 57 57 57 57 57 57 55 54 53 54 58 62 64 64 64 65 66 66 65 65 66 67 67 68 69 68 67 66 65 63 62 60 58 56 54 53 53 53 54 55 55 53 53 54 53 53 54 55 56 58 60 61 62 63 64 64 62 60 58 56 55 55 54 53 52 53 53
53 55 57 59 60 60 59 58 57 55 55 54 52 50 49 50 53 55 57 57 58 58 58 59 58 58 58 56 55 53 54 58 60 63 64 64 64 66 66 65 65 65 65 65 67 69 69 68 67 66 65 63 62 61 58 55 54 54 53 52 52 51 50 50 50 51 51 51 52 53 55 56 58 59 61 62 62 61 60 58 57 56 55 54 53 53 54 54
53 54 56 58 60 61 62 62 60 59 57 57 55 53 51 50 51 54 56 57 58 58 59 60 59 59 58 57 56 55 57 58 57 59 62 64 64 65 64 64 64 65 64 64 65 66 67 68 68 67 66 65 64 62 59 57 56 55 53 51 50 48 46 47 48 49 49 49 50 51 52 53 55 56 58 60 60 60 59 58 57 56 55 54 54 55 55 55
58 58 58 58 59 61 62 63 63 62 60 59 58 57 55 52 52 52 55 57 58 59 60 60 61 60 59 58 57 57 60 59 55 57 59 63 65 64 64 63 64 65 64 63 63 64 66 69 70 69 68 66 64 63 60 58 58 57 54 52 50 47 44 45 47 47 48 47 48 49 49 50 52 53 55 57 57 58 57 57 57 56 56 56 56 56 56 56
63 63 63 62 60 60 62 63 64 64 63 62 61 60 59 56 54 53 54 56 58 60 60 61 62 61 60 59 58 61 63 59 56 56 57 60 64 65 64 63 63 64 64 63 63 64 66 68 69 69 68 66 65 63 61 60 59 58 55 54 51 47 45 45 45 46 46 46 47 47 47 48 49 50 52 53 54 55 55 56 56 56 57 57 57 57 57 55
67 67 68 67 65 63 62 63 64 65 65 64 64 63 62 60 58 56 55 55 57 59 61 62 62 62 61 59 62 65 63 59 57 57 57 59 62 64 64 63 63 63 63 64 64 65 65 65 66 67 67 67 66 64 62 61 60 59 57 55 52 48 47 46 45 44 45 46 47 47 47 47 48 49 50 50 50 51 52 53 55 56 56 56 57 56 55 54
72 71 71 71 70 68 65 64 65 65 66 66 66 66 65 63 62 59 57 56 57 59 61 63 62 63 61 61 66 67 62 60 59 58 59 60 61 63 64 64 63 63 63 64 65 65 64 64 64 65 66 66 66 65 63 62 61 60 58 56 52 50 49 48 46 44 44 44 45 46 46 47 47 48 47 46 46 46 48 50 51 53 54 54 55 54 53 50
76 75 74 74 73 72 70 68 67 67 67 67 67 68 67 66 64 61 59 58 58 58 61 62 63 64 61 64 70 67 62 63 60 59 60 60 60 61 62 64 64 63 63 64 65 65 64 63 63 63 64 64 65 64 63 63 62 61 59 56 52 50 50 50 48 46 45 44 45 45 46 46 46 45 43 40 39 41 43 45 46 47 47 49 51 51 52 48
80 78 77 77 76 75 74 71 70 69 69 69 69 69 69 69 66 64 61 60 59 59 60 61 63 64 62 67 71 66 65 66 62 59 59 61 61 60 61 63 64 65 64 64 64 64 64 63 62 62 62 63 63 63 63 63 62 61 59 55 52 51 52 52 50 48 46 45 45 45 45 45 43 42 40 37 36 39 39 39 39 39 40 43 45 47 48 47
83 82 81 80 80 79 77 75 73 72 72 71 71 71 71 71 69 66 64 62 61 60 60 60 63 64 64 69 72 67 67 67 63 60 60 62 62 61 61 62 64 66 65 64 63 63 63 63 63 62 61 61 61 61 61 62 61 60 57 55 53 53 54 53 51 50 49 47 45 45 44 43 42 41 40 39 41 41 37 33 32 33 35 36 38 42 43 45
87 86 85 84 83 82 80 78 77 75 74 74 73 73 73 73 70 68 66 65 63 62 60 60 62 64 65 71 73 69 68 68 65 62 61 63 62 62 62 61 64 66 66 65 63 62 62 62 63 61 61 60 59 59 58 58 58 57 56 55 54 55 55 53 52 52 50 48 46 46 44 42 41 40 40 40 41 39 34 30 26 24 22 24 30 36 38 39
90 89 88 87 86 84 82 81 80 78 77 76 75 76 76 74 72 70 68 66 65 63 61 60 61 64 67 71 73 71 70 69 67 64 63 64 63 63 63 63 63 66 67 66 64 62 61 61 62 62 60 58 56 55 54 54 55 55 55 55 54 55 55 53 52 52 50 48 47 47 45 42 41 39 39 39 38 38 35 31 25 14 7 12 27 36 35 34
93 91 90 89 88 86 84 83 82 81 79 78 77 78 78 76 73 72 71 68 66 65 63 61 62 64 67 72 74 74 73 71 69 67 65 65 64 64 64 64 63 64 66 66 64 63 60 60 60 59 56 54 53 53 52 54 56 57 56 56 56 56 56 54 53 53 51 49 48 48 46 44 42 40 39 38 37 37 36 32 24 12 4 13 30 39 39 35
93 92 90 89 87 86 84 82 82 81 80 80 79 79 80 78 75 74 73 70 68 67 65 63 63 64 68 72 75 76 75 72 70 68 66 66 66 65 65 65 64 63 64 66 65 63 61 60 57 54 54 53 54 54 55 56 57 57 57 57 57 57 57 56 55 54 53 51 49 49 48 46 44 42 40 37 35 35 35 30 25 20 22 28 35 41 43 38
91 90 88 86 84 83 81 80 80 80 80 80 80 80 81 80 77 76 75 73 71 70 67 65 65 66 69 73 77 78 76 73 71 70 67 67 67 66 66 65 64 63 62 64 66 64 62 58 54 54 57 57 57 57 57 57 57 57 57 57 57 57 57 56 55 55 54 52 51 51 49 48 46 43 40 36 34 34 33 30 31 35 39 40 40 44 46 39
86 84 83 81 80 79 77 76 76 77 78 78 78 79 81 80 78 78 77 75 74 72 70 68 66 67 71 75 78 78 76 73 72 70 68 68 67 66 66 66 65 63 62 63 65 64 60 55 54 57 59 59 59 59 59 58 58 58 57 57 57 57 57 56 55 54 53 52 52 52 51 50 47 44 41 38 35 35 35 36 40 45 46 44 43 45 43 35
79 78 77 76 75 74 73 72 72 73 74 74 75 77 79 79 79 79 79 77 76 75 73 70 68 70 73 75 77 77 75 74 72 69 68 68 68 67 67 67 65 65 63 61 62 63 60 56 57 58 60 61 60 59 59 58 58 58 57 57 57 58 58 57 56 54 53 53 53 52 51 51 48 45 42 39 38 38 39 40 43 46 46 46 46 45 39 34
73 71 71 70 70 70 69 69 69 69 70 70 71 73 75 76 77 80 80 78 79 77 74 72 71 73 75 74 75 76 75 75 72 69 68 68 68 68 68 67 67 65 63 61 62 63 62 60 60 61 61 62 61 60 59 58 57 57 57 57 58 59 60 59 57 56 55 54 53 53 52 51 48 45 42 41 41 41 42 42 43 45 46 46 47 47 42 38
67 66 66 66 66 66 67 67 68 67 67 67 68 70 72 73 75 79 79 78 79 78 75 73 73 76 76 73 73 75 75 75 72 70 69 68 69 69 68 68 67 66 64 62 62 64 64 63 63 63 62 62 62 61 59 58 58 58 57 58 59 60 61 60 58 57 56 55 55 54 53 51 49 46 44 42 43 44 44 44 44 44 46 47 46 47 48 45
62 62 61 62 62 63 63 64 65 64 64 64 66 68 68 70 75 77 76 77 79 79 76 75 75 77 74 71 73 75 76 76 74 72 70 69 70 70 70 69 68 66 66 64 62 64 65 64 64 63 62 62 62 61 60 59 59 58 58 59 60 61 62 60 59 58 57 55 55 55 53 52 50 48 45 44 45 46 46 45 46 46 47 50 49 48 51 50
58 58 57 57 58 59 59 60 60 60 62 62 64 65 65 70 75 74 74 75 78 79 77 75 76 76 73 71 73 75 76 77 75 71 69 69 70 70 71 70 69 68 67 66 62 62 64 65 65 64 62 62 61 61 61 61 60 59 59 61 62 62 63 61 59 58 56 56 55 55 53 52 51 48 46 46 46 47 47 46 48 48 48 51 53 52 51 50
54 54 53 53 54 55 55 54 54 55 56 58 61 61 63 69 73 72 72 74 77 78 76 75 76 75 72 71 73 75 76 76 73 70 70 70 70 70 71 70 70 69 69 66 62 60 63 65 65 64 63 62 60 61 62 63 62 61 62 64 64 65 65 63 61 59 57 56 54 53 52 51 50 47 46 47 48 47 47 47 49 51 50 51 53 54 52 51
50 49 49 50 50 50 50 49 49 49 50 53 55 56 61 67 68 68 70 72 75 77 75 75 75 74 72 72 73 75 76 76 73 70 70 69 69 70 71 71 71 71 70 68 65 62 63 66 67 66 65 63 62 63 65 65 64 63 65 67 66 67 66 64 62 59 58 56 53 51 51 50 49 47 46 47 48 48 49 50 51 53 53 53 54 55 54 54
46 46 47 48 47 46 45 44 44 45 46 48 49 53 59 62 62 64 67 70 73 75 74 74 73 73 72 72 73 74 75 75 72 69 69 68 69 70 71 73 73 73 72 70 67 64 63 66 69 68 66 65 65 65 67 67 67 66 68 69 68 68 67 65 62 61 59 53 50 51 50 48 46 45 45 45 48 50 51 52 53 54 55 55 56 56 56 56
44 43 44 43 42 40 40 39 40 41 43 43 45 51 55 56 58 61 64 68 71 72 72 72 73 73 72 72 73 73 73 73 71 68 68 68 68 70 71 73 73 73 72 70 67 65 63 64 67 69 68 67 66 66 67 69 69 68 69 70 69 69 68 66 63 62 57 50 49 51 49 45 43 42 44 45 47 50 51 52 54 56 57 57 57 57 57 56
41 39 38 37 36 34 34 34 36 37 38 39 43 47 49 51 55 59 62 66 68 70 71 71 72 72 71 71 72 72 72 71 69 67 67 68 68 69 71 71 72 71 69 67 65 65 63 62 64 69 69 68 67 66 67 68 69 69 70 70 69 68 67 65 62 58 52 48 49 51 48 44 41 42 45 45 46 48 49 50 53 56 57 58 58 58 57 56
38 35 33 31 29 28 28 30 31 32 33 36 40 42 43 47 52 58 62 65 67 69 69 70 71 71 71 71 72 72 72 70 68 67 67 68 68 70 71 72 72 71 69 67 66 64 63 62 62 67 69 68 67 66 64 64 65 67 68 68 66 65 63 61 58 55 51 49 50 51 48 44 41 42 44 45 46 47 47 49 52 54 56 57 57 57 58 57
35 31 28 25 23 22 23 25 27 28 30 34 37 38 40 46 52 56 61 64 66 67 67 69 70 70 71 71 72 72 71 70 68 67 67 67 68 70 71 72 73 72 70 70 68 65 63 61 60 63 68 68 66 65 63 64 66 68 69 69 66 63 61 59 57 55 52 51 51 52 49 44 41 42 43 44 45 45 46 48 50 52 55 56 56 57 58 59
32 27 23 20 18 18 19 21 23 25 28 31 33 35 40 45 50 54 58 62 63 64 66 68 69 70 70 71 71 70 70 69 68 67 67 67 68 70 70 71 72 72 71 70 68 66 65 62 60 61 66 68 67 65 65 66 67 68 71 72 68 64 62 61 60 58 55 53 52 53 49 43 41 41 42 44 44 44 45 46 48 50 52 54 55 57 58 60
28 22 19 17 15 15 16 18 20 22 25 28 30 34 39 43 47 52 57 60 61 62 65 68 69 70 69 69 70 69 68 68 67 67 68 68 69 71 71 71 72 71 71 70 68 66 64 63 61 62 65 68 68 67 66 66 65 66 69 70 68 66 64 62 61 59 58 55 53 52 48 43 42 42 43 45 45 44 44 44 45 47 49 50 51 54 56 59
23 18 16 15 13 12 13 15 18 20 22 25 29 33 37 40 44 50 55 58 59 62 65 67 68 67 67 68 68 67 67 67 67 67 67 69 70 71 72 72 72 72 71 70 69 66 64 63 62 61 65 69 69 69 68 67 65 65 67 70 71 69 65 63 61 59 57 53 51 51 48 43 43 43 44 46 46 44 44 43 44 44 46 48 47 49 53 56
19 17 14 13 11 10 10 12 15 18 20 23 27 31 35 39 43 48 53 56 58 62 65 65 65 64 65 65 65 65 66 66 66 66 67 68 70 71 72 72 72 72 72 71 69 67 66 64 62 61 65 69 71 71 70 68 66 65 68 73 74 70 65 62 60 57 54 51 49 50 45 42 43 43 44 46 45 44 44 43 43 44 45 47 47 48 50 53
18 16 13 11 10 8 7 9 12 16 19 21 24 28 33 38 43 48 51 53 55 59 60 60 60 61 62 62 63 64 64 64 65 65 66 68 69 71 72 73 73 72 71 71 69 67 66 64 63 62 64 70 72 71 69 67 65 65 67 72 73 69 65 63 59 56 53 50 48 48 44 41 42 43 44 46 46 45 44 43 43 45 46 47 47 47 48 50
17 14 11 9 7 6 5 7 10 13 17 19 22 27 31 36 42 47 49 51 52 54 55 55 56 58 59 60 61 62 63 63 64 65 66 67 68 70 71 72 73 73 72 71 69 68 66 64 63 63 64 68 70 69 67 66 64 63 64 67 69 67 65 64 60 56 53 49 48 47 45 43 43 43 45 46 46 44 43 43 43 45 46 47 46 46 46 48
16 12 9 7 4 3 5 6 9 12 16 19 22 25 30 35 40 43 45 47 49 51 52 53 54 55 57 58 59 61 62 62 63 64 65 66 67 69 70 71 72 72 72 71 69 67 65 64 63 63 63 65 67 67 67 66 64 62 62 66 68 68 66 64 60 56 52 50 48 47 45 44 44 45 46 47 46 44 44 44 43 44 45 46 46 45 45 46
15 11 9 5 1 4 6 8 10 13 16 19 22 25 30 34 37 39 41 44 46 48 49 50 51 53 54 56 58 59 60 61 62 63 64 65 66 67 69 70 71 71 71 69 68 66 65 64 63 62 63 65 67 67 67 66 65 64 64 68 71 71 68 64 59 54 52 50 48 47 46 45 46 46 46 47 46 45 44 44 43 43 44 45 45 44 44 45
15 11 9 4 1 6 9 10 11 14 17 20 22 26 29 32 35 37 40 42 44 45 46 47 48 50 51 53 55 57 58 59 61 61 63 64 65 66 67 68 69 69 68 67 66 65 65 64 63 62 63 66 68 69 69 68 66 64 63 65 68 69 67 65 61 58 57 53 49 49 47 45 46 46 46 47 47 45 44 44 44 44 44 45 45 44 43 45
14 12 10 5 2 6 10 12 14 17 19 21 24 26 28 30 34 38 40 42 42 43 43 44 45 46 48 50 52 54 56 57 59 60 61 63 63 64 65 66 66 66 66 66 64 63 63 62 62 62 63 65 68 69 69 66 63 60 59 61 65 67 68 67 65 64 60 55 51 51 48 46 46 47 47 48 47 46 45 45 46 45 45 45 45 44 44 45
13 11 10 6 4 7 10 12 14 17 19 21 24 26 28 30 34 38 39 40 40 40 40 41 42 44 45 47 50 52 53 55 57 58 60 61 61 62 63 63 63 64 65 65 63 62 62 62 62 61 61 62 63 63 61 58 56 56 57 59 63 67 68 67 66 64 58 54 52 51 48 46 47 48 47 47 47 47 47 47 48 47 47 46 46 46 45 46
13 11 11 9 5 7 11 12 13 16 19 20 22 25 28 32 35 37 37 37 36 37 37 39 40 42 44 46 48 49 51 53 55 57 59 60 60 61 62 62 62 62 63 62 61 60 61 61 61 60 61 62 62 61 60 58 57 56 56 57 61 65 67 67 66 62 56 55 53 50 49 49 49 49 48 48 48 48 48 49 49 49 48 48 48 47 47 48
13 12 14 12 8 8 11 14 15 16 17 19 21 26 30 33 35 36 35 35 35 36 37 38 39 40 42 44 45 47 49 51 53 55 57 57 58 59 60 60 61 61 61 60 59 59 59 59 59 59 61 62 63 64 64 61 59 57 57 58 61 65 66 66 63 59 57 57 54 52 52 52 51 50 50 49 49 50 50 50 50 50 49 49 49 49 48 48
14 13 16 16 13 11 12 15 16 16 17 20 24 29 32 34 34 33 33 33 33 34 35 35 36 37 39 40 42 43 45 48 50 52 53 54 54 56 57 58 58 59 59 59 58 59 59 58 58 59 60 61 62 62 61 59 57 57 57 59 61 64 65 63 59 57 58 58 55 54 54 53 53 52 51 51 51 51 51 51 50 50 50 49 49 49 49 49
15 13 18 21 18 16 15 18 19 19 21 25 29 31 32 31 30 29 30 31 31 32 32 33 34 35 36 38 39 41 43 45 47 48 49 50 51 53 54 55 55 56 57 57 57 57 57 57 57 58 59 60 60 59 58 57 56 55 56 57 60 62 63 61 59 59 59 57 56 56 55 54 54 53 52 52 52 52 51 51 50 50 50 50 50 50 50 50
17 15 18 24 24 22 21 22 22 24 27 30 33 33 33 32 31 31 31 31 31 31 32 32 33 33 34 35 37 39 41 42 44 44 45 46 48 50 51 52 53 54 55 55 55 55 56 56 56 57 58 57 57 56 56 55 54 54 54 56 58 60 61 61 61 60 59 57 56 56 55 54 54 53 53 52 52 52 52 51 51 51 51 51 51 51 51 51
19 17 17 23 28 27 26 26 26 28 32 34 34 34 34 33 32 32 32 32 31 31 31 31 31 32 33 34 36 37 39 40 40 41 42 44 45 46 48 50 50 51 51 51 52 53 54 55 55 56 56 55 55 55 54 54 53 52 52 54 56 57 59 60 60 59 57 56 57 56 55 54 54 54 54 53 52 52 52 52 52 52 52 52 51 51 51 52
18 18 17 21 27 29 29 30 29 31 33 34 33 32 31 29 29 29 30 31 31 31 31 30 31 31 32 34 35 36 37 37 37 38 40 41 42 44 46 47 48 48 49 49 50 52 52 53 54 54 54 54 54 53 53 53 51 50 50 52 55 56 57 58 59 58 58 58 58 57 56 55 55 55 55 54 53 52 52 53 53 53 53 53 52 51 51 52
Wind_Direction
284 283 282 281 279 278 276 275 274 273 272 271 269 267 264 262 260 259 259 258 258 257 256 254 251 249 248 246 244 243 243 242 242 242 243 243 244 244 244 243 243 242 241 241 241 241 241 241 242 242 243 243 244 244 244 245 245 245 245 245 245 245 245 245 245 246 246 247 247 247 247 248 248 249 250 250 251 252 253 254 255 256 258 259 260 261 263 265
284 283 282 281 280 279 277 276 274 273 272 271 270 268 266 264 261 259 258 257 257 256 256 255 253 251 248 247 245 244 242 242 241 241 242 243 243 243 243 243 243 243 242 241 241 241 241 241 242 242 242 243 243 243 243 244 244 244 244 244 244 244 244 245 246 246 246 246 246 247 247 247 248 249 249 249 250 251 252 253 254 255 257 258 259 261 263 264
283 281 280 279 279 278 277 276 274 273 271 270 269 268 267 265 263 260 258 257 256 255 255 254 253 252 250 248 246 245 243 242 241 241 241 242 242 242 243 242 242 242 243 242 242 242 241 241 241 242 242 242 243 243 243 243 243 243 243 243 243 244 244 245 246 246 246 246 246 246 246 246 247 248 248 248 249 250 251 252 253 254 255 256 258 260 262 263
284 281 279 278 277 277 276 274 273 272 271 269 268 267 266 266 264 262 259 257 255 254 254 253 252 252 251 248 247 245 244 242 241 240 240 240 241 241 242 242 241 241 242 242 242 242 242 241 241 241 242 242 242 242 242 242 242 242 242 242 243 244 245 245 246 247 246 246 246 246 246 246 246 247 247 247 247 248 249 251 252 253 254 256 257 259 261 262
285 283 281 279 277 277 276 274 271 270 269 269 267 266 265 265 264 263 261 258 255 253 252 252 252 251 250 249 247 246 244 243 242 241 239 239 240 240 241 241 241 240 241 241 242 242 242 242 241 241 241 241 241 241 242 242 242 242 242 243 244 245 245 246 247 247 247 246 246 245 245 245 245 245 246 246 246 247 248 249 251 252 253 255 256 258 259 260
284 283 282 280 279 278 277 275 271 268 266 266 266 265 264 263 263 262 261 259 256 254 252 251 251 250 249 248 247 246 245 243 242 242 239 239 239 239 239 240 240 240 240 240 241 241 242 242 242 241 241 241 241 241 241 242 242 243 243 243 244 245 246 246 247 247 246 246 245 245 245 245 245 245 245 245 246 246 247 248 249 250 252 253 255 256 257 257
284 282 281 279 278 277 276 275 272 268 265 264 263 264 263 263 261 261 260 259 257 255 252 250 249 249 248 247 247 246 246 244 242 241 240 239 239 238 238 239 240 240 240 240 239 240 240 241 241 241 241 241 241 240 240 241 242 243 243 244 244 246 246 246 246 246 245 245 244 243 243 243 243 243 244 244 245 246 246 246 247 248 250 251 253 254 255 256
287 285 282 279 277 276 275 274 272 269 265 263 262 261 261 261 260 259 258 258 257 255 253 250 248 247 247 246 246 245 245 243 241 241 241 240 240 239 237 237 239 240 240 239 238 238 239 239 240 241 241 241 241 240 240 240 241 242 243 243 245 246 246 245 245 245 244 243 242 242 241 241 242 242 243 244 244 245 245 245 246 247 248 249 251 252 253 255
292 290 287 283 279 276 273 272 270 269 265 262 261 260 259 259 259 258 257 256 256 255 253 251 248 246 245 245 244 244 244 243 242 241 241 240 240 239 238 237 237 239 239 239 238 238 238 238 239 239 239 240 240 241 240 240 241 241 242 243 245 246 246 245 244 243 242 241 241 241 240 240 241 241 241 242 243 243 244 244 244 245 246 247 248 250 252 254
293 293 291 287 282 277 274 271 269 267 265 262 260 259 259 258 257 256 256 255 254 253 253 251 249 246 245 244 243 243 243 242 241 241 241 240 240 240 238 237 236 237 237 238 238 237 236 236 236 237 238 239 240 240 240 240 241 241 241 242 243 244 244 243 242 241 241 240 240 240 240 240 240 240 241 241 242 242 242 243 243 244 245 246 247 249 251 254
294 293 293 291 286 280 275 271 268 265 263 261 259 258 258 257 256 255 254 253 252 252 251 250 249 247 245 243 242 242 242 241 241 241 241 240 240 239 238 237 236 236 236 236 237 236 236 236 236 237 237 238 238 239 239 239 240 240 240 240 240 241 241 242 241 240 240 239 238 238 238 238 239 239 240 241 241 242 242 242 243 243 244 246 247 249 252 254
294 292 292 291 289 284 277 272 268 265 262 260 258 257 256 257 256 254 252 251 251 250 249 249 248 246 244 242 242 241 241 240 239 240 240 240 239 238 238 237 236 236 235 235 235 235 235 235 236 236 236 236 237 237 238 239 240 240 239 239 239 239 240 240 240 240 239 237 237 236 236 236 236 237 239 240 241 242 242 243 243 244 244 245 247 250 253 256
294 292 291 290 289 286 280 273 268 264 261 258 257 256 255 255 254 253 251 250 249 248 248 247 247 246 244 242 241 241 240 240 238 238 239 239 239 238 237 237 237 236 235 234 234 235 235 235 235 235 235 235 236 236 237 237 238 239 239 238 238 238 239 240 239 239 238 237 236 236 235 235 235 236 238 241 243 244 244 244 244 245 245 246 248 250 252 254
294 292 290 289 288 286 282 275 269 264 261 258 255 254 253 252 252 252 250 248 247 247 246 245 245 245 243 241 241 240 240 239 237 237 238 239 239 239 237 236 236 236 235 234 233 234 234 235 235 235 235 235 235 235 235 236 237 238 238 238 238 238 239 239 238 238 237 236 235 234 234 234 235 237 239 241 246 248 247 246 246 246 247 248 249 249 250 251
294 292 290 288 286 284 281 276 270 264 260 257 254 253 252 251 250 249 249 247 245 245 245 244 243 243 241 241 241 239 238 238 237 236 237 238 238 238 237 236 235 235 235 234 234 233 234 234 234 234 234 234 234 234 234 235 236 238 238 238 238 238 239 239 238 237 236 235 234 233 233 233 234 235 235 234 235 238 239 240 243 245 246 247 249 250 251 250
294 291 289 287 285 283 280 275 270 264 260 256 253 251 250 249 248 247 246 246 244 243 243 243 242 241 240 241 241 238 237 238 237 235 236 237 236 237 237 236 234 234 235 235 234 233 233 233 234 234 234 234 234 234 234 235 236 237 238 238 237 237 238 238 237 237 236 235 234 233 232 232 232 232 231 228 227 230 233 237 241 244 247 250 252 252 251 249
293 291 288 286 283 281 278 274 269 264 260 255 252 250 248 247 246 245 244 244 243 242 241 242 241 239 238 240 241 238 236 236 236 234 235 236 235 235 236 236 234 234 233 234 233 233 233 233 233 234 234 234 234 234 234 235 236 237 238 237 236 236 236 236 235 235 235 234 233 232 232 231 230 229 229 228 228 229 232 236 241 247 257 265 262 257 255 252
292 289 287 284 281 278 275 271 267 263 259 255 251 249 247 245 244 243 242 242 242 241 240 240 240 238 236 238 239 237 235 234 234 233 233 234 234 234 234 234 234 233 232 232 232 232 232 232 232 232 233 233 234 235 235 235 235 235 234 234 233 233 233 232 232 233 232 232 232 232 231 230 229 228 227 227 226 226 226 227 231 240 279 274 257 254 257 255
290 287 285 282 279 276 273 269 266 262 258 254 251 248 246 243 241 241 241 240 240 241 239 239 239 237 236 236 237 237 234 232 232 232 232 233 233 233 233 233 234 234 232 231 231 231 231 231 231 232 233 234 235 234 232 231 231 230 230 229 229 229 229 228 229 230 230 229 230 231 231 230 228 227 226 225 223 223 223 219 217 213 202 232 239 244 251 253
288 286 283 280 277 274 271 268 264 261 257 254 250 247 245 243 240 239 239 239 239 239 238 237 237 236 235 234 235 235 234 232 231 231 231 231 232 232 232 232 233 234 233 231 230 230 229 229 229 229 230 230 230 229 228 227 227 227 227 227 228 228 228 227 227 228 228 227 228 230 230 230 228 227 226 224 221 221 220 213 204 205 211 220 227 232 237 242
287 284 281 279 276 273 270 266 263 260 257 253 250 247 244 242 239 238 237 237 237 238 237 236 236 235 234 233 233 234 233 231 230 230 230 231 231 231 232 232 231 233 233 231 229 229 229 228 227 227 226 226 225 224 224 224 225 225 225 226 226 227 227 227 227 227 228 227 227 229 230 230 229 227 225 223 220 218 217 207 200 208 215 219 226 229 227 229
285 283 280 277 275 272 269 266 262 259 256 253 250 247 244 242 239 237 236 235 236 236 235 235 235 235 233 232 232 232 232 231 230 230 230 230 230 230 231 231 231 231 232 231 229 228 228 227 227 226 225 225 225 224 223 222 223 223 224 224 225 225 226 226 226 227 228 228 228 229 230 230 229 227 225 223 219 216 213 206 204 210 215 218 227 232 226 222
284 281 279 277 274 272 269 266 263 260 257 253 250 247 244 242 239 237 235 233 234 234 233 233 233 234 233 231 231 231 231 231 230 230 230 230 230 229 229 230 230 230 231 231 229 227 225 224 225 226 225 225 224 224 223 223 223 223 223 224 224 225 226 225 225 226 228 229 229 229 230 230 230 228 226 224 221 217 214 211 209 211 215 221 227 230 226 222
283 281 278 276 274 272 269 266 263 260 256 253 250 247 245 242 239 237 235 232 233 233 232 231 231 233 232 230 230 229 229 230 230 229 229 229 229 228 227 228 228 228 229 229 227 225 223 221 223 224 224 224 224 223 223 222 222 223 223 223 224 225 226 225 224 225 226 228 229 229 229 230 230 228 226 224 222 221 218 215 214 213 213 219 226 227 226 225
284 281 278 276 273 270 268 265 262 259 256 253 249 246 244 242 239 237 234 232 232 232 231 230 230 231 231 229 228 228 228 229 229 228 228 228 228 226 225 226 227 227 228 228 226 224 221 221 222 223 222 223 222 222 222 221 221 221 222 223 224 225 226 226 225 225 226 227 228 229 229 229 229 227 225 224 223 223 221 218 218 216 212 215 222 224 224 225
285 282 279 276 273 270 267 264 262 259 256 252 248 245 242 240 238 236 234 231 231 231 230 229 229 230 230 228 226 227 227 228 227 227 227 227 226 225 222 223 225 226 226 227 226 223 221 220 222 223 223 223 222 221 221 221 220 220 220 222 224 225 226 226 225 225 226 227 229 230 229 229 228 226 224 223 223 224 222 221 222 220 215 214 218 222 222 224
286 284 281 277 274 271 268 264 262 259 255 251 247 243 240 238 237 235 233 230 230 230 229 228 229 229 228 226 225 226 226 227 227 227 227 227 226 224 221 220 222 224 225 226 226 223 221 220 221 222 223 224 223 222 222 221 220 219 219 221 223 225 226 226 225 225 226 227 228 230 229 229 228 226 224 224 224 224 223 222 224 224 220 217 219 222 223 224
289 286 283 279 276 273 270 267 263 258 254 249 245 242 237 235 235 233 231 229 228 229 228 227 228 227 226 224 224 224 225 226 226 226 227 227 225 224 221 218 220 222 223 224 224 223 221 219 221 222 222 223 223 222 222 222 220 218 219 220 221 223 225 225 225 225 225 226 227 229 229 229 229 227 224 223 223 223 223 222 224 225 222 220 221 224 224 224
292 289 285 282 278 276 273 268 263 258 252 247 243 239 236 234 232 231 229 228 227 228 227 226 226 225 224 222 222 222 223 225 225 224 226 225 224 223 219 217 218 220 221 222 221 221 219 218 219 220 220 221 221 221 221 222 220 219 219 220 221 223 224 224 225 225 225 225 226 229 229 228 228 226 224 222 222 222 221 221 224 225 223 222 222 224 225 226
294 291 287 284 280 277 272 267 261 255 249 245 240 235 233 231 230 228 226 226 225 225 225 224 224 223 222 221 221 222 222 224 223 223 224 225 223 221 218 216 217 219 220 220 220 220 219 217 217 219 219 219 220 220 220 220 220 220 220 220 220 222 224 224 225 225 226 225 227 230 230 227 227 227 225 223 222 222 220 220 223 224 223 223 223 224 226 227
298 293 288 284 280 275 269 263 257 251 246 241 236 232 230 227 226 225 224 223 223 223 222 222 221 221 220 219 219 221 222 223 223 222 223 223 222 220 219 216 217 219 220 220 220 221 221 219 218 218 219 219 220 221 220 220 219 220 222 222 221 222 223 224 225 226 226 224 227 230 230 228 227 228 229 226 225 225 223 222 224 225 224 222 223 223 226 228
300 295 290 285 279 272 265 258 252 248 243 237 233 230 227 223 221 221 221 221 221 221 220 220 219 219 219 218 218 219 220 222 222 222 222 222 220 219 218 216 217 219 221 222 223 223 223 221 219 219 219 219 220 221 222 222 221 221 223 224 224 224 225 226 227 229 228 225 227 231 231 228 226 229 231 230 228 228 226 225 226 227 226 224 223 223 225 226
303 299 293 285 278 270 261 254 249 245 238 232 229 227 223 220 217 217 217 218 218 218 218 218 217 217 217 217 217 218 219 220 220 220 220 219 218 217 216 215 216 217 219 220 222 224 225 223 221 220 220 220 221 222 223 224 224 224 226 227 227 228 229 231 232 232 229 226 228 231 231 228 226 228 232 232 231 230 228 228 228 230 229 227 224 224 225 225
307 301 293 286 277 268 258 251 245 239 232 227 224 222 217 215 214 213 213 215 216 215 215 216 216 215 215 216 216 217 218 218 218 218 218 217 216 215 215 214 215 216 217 218 219 220 222 224 224 223 222 221 222 223 223 223 223 222 225 227 228 228 229 230 232 232 230 227 228 230 230 227 226 228 230 232 232 231 230 230 231 232 232 231 227 226 227 227
309 302 296 290 280 267 255 246 239 232 227 224 220 215 212 211 211 210 211 213 213 213 212 213 214 214 214 215 215 216 217 217 217 216 216 215 214 213 214 214 215 216 216 218 219 219 219 220 221 221 221 221 221 223 223 224 223 222 222 225 225 226 226 226 227 227 226 226 227 230 230 227 226 227 229 231 231 230 230 230 231 233 234 233 230 228 228 228
310 306 304 298 285 268 252 241 233 227 224 221 216 211 209 209 208 206 207 210 210 209 210 211 212 213 213 214 215 215 216 216 216 215 214 213 212 211 211 213 215 216 217 218 219 220 220 220 219 218 218 219 220 221 223 224 225 224 225 226 225 224 224 225 226 226 225 224 224 228 228 225 225 226 228 230 231 230 230 230 231 233 234 233 231 230 229 227
316 316 314 304 289 269 249 236 227 220 217 216 212 208 207 206 205 204 205 207 207 206 208 210 210 211 211 212 214 214 214 214 215 214 213 212 210 210 210 212 213 215 216 218 218 218 219 220 221 219 217 217 218 219 221 223 223 223 224 225 225 224 223 224 225 225 226 225 224 226 226 223 222 224 226 229 231 231 230 231 231 233 235 234 232 231 229 227
328 328 322 309 293 270 247 234 222 212 208 209 209 207 205 202 200 201 203 204 204 204 206 208 209 209 209 210 212 212 213 213 213 213 212 211 210 209 209 211 213 215 216 217 218 218 219 219 220 220 218 217 217 219 220 221 222 222 222 223 224 224 224 225 226 226 226 226 225 227 226 223 222 223 225 229 230 231 230 230 230 232 234 233 231 230 229 227
340 337 330 318 297 267 238 227 218 208 201 201 204 204 202 198 196 198 201 202 202 203 205 206 207 207 208 209 209 210 211 211 211 211 211 210 210 210 209 210 212 215 216 218 218 219 220 220 220 219 218 217 218 219 220 221 222 223 223 224 224 223 222 224 225 226 226 225 225 227 226 224 224 223 225 229 229 229 229 229 229 230 232 232 231 230 228 227
348 344 340 327 298 261 216 204 208 203 195 192 196 199 199 196 195 197 198 198 199 202 203 204 204 205 206 207 208 209 210 210 210 210 210 210 209 210 210 210 212 214 216 218 219 219 220 220 220 220 218 217 218 219 220 222 223 223 225 226 227 226 224 224 223 223 224 224 224 226 225 223 224 224 226 229 229 229 228 228 229 230 231 232 231 230 228 227
356 355 355 338 295 231 179 176 188 189 185 184 188 193 194 194 195 195 194 194 196 199 201 202 203 204 205 206 206 207 208 209 209 209 209 210 209 209 210 210 212 214 215 217 219 219 221 221 221 220 218 216 217 219 220 222 222 223 223 223 224 224 224 225 225 224 224 223 223 224 224 222 224 224 226 229 229 228 228 228 229 230 231 232 231 230 228 226
3 7 8 354 275 169 149 156 173 176 174 177 182 187 190 192 192 190 189 190 192 196 198 200 201 203 204 204 205 206 207 207 208 208 209 210 210 210 210 210 212 214 215 217 217 218 219 220 220 219 217 215 215 218 220 221 222 221 221 221 221 221 221 222 224 225 226 225 224 224 223 222 223 224 226 229 229 227 227 229 230 230 232 233 231 229 227 225
10 19 21 10 159 149 142 147 159 165 167 172 178 182 186 187 185 182 183 186 189 193 196 198 200 202 203 204 205 205 206 207 207 208 208 209 209 210 210 211 211 213 215 216 217 217 218 218 218 218 216 214 214 216 218 220 221 222 222 222 221 221 220 220 219 220 221 221 222 223 223 222 223 224 225 228 229 227 227 228 230 231 232 233 232 230 227 224
18 32 34 29 117 139 141 146 154 161 165 169 173 178 181 180 177 176 179 183 186 190 193 196 198 200 202 204 205 205 205 206 207 208 209 209 209 209 210 211 212 213 214 216 217 218 218 218 217 216 216 214 215 217 219 219 221 223 224 224 223 222 221 220 219 218 218 217 217 220 220 221 223 225 225 227 229 228 227 228 230 231 231 232 232 231 229 225
24 41 47 48 99 130 135 140 149 156 160 166 170 171 172 171 170 172 177 181 184 187 191 194 197 198 200 202 204 205 205 205 206 207 208 209 209 209 209 210 211 213 214 215 216 216 218 218 216 215 215 214 216 220 223 224 225 225 226 225 223 222 222 222 221 221 219 217 217 218 219 220 223 225 226 228 230 230 228 228 229 230 230 231 232 231 230 227
29 51 61 62 87 122 129 131 138 148 155 162 165 163 161 163 166 170 174 177 180 184 188 192 195 196 198 199 201 202 203 204 205 206 208 208 208 208 209 209 210 212 214 215 214 215 216 216 215 213 213 212 213 217 220 221 223 224 225 225 224 223 223 223 222 221 220 219 219 218 219 220 222 224 226 227 229 231 231 230 230 230 229 230 231 231 231 230
35 59 73 73 83 106 119 124 130 141 148 151 151 151 153 158 163 168 171 174 178 183 187 189 191 194 196 197 199 200 201 203 204 206 207 207 207 208 208 209 209 210 211 212 212 213 214 215 213 212 212 211 212 214 217 218 219 221 221 222 222 223 223 224 223 221 221 221 220 219 220 221 223 224 225 226 228 230 231 231 231 231 231 230 231 232 232 231
41 66 80 77 76 90 107 116 120 124 131 136 140 145 151 157 162 166 169 172 177 182 185 187 188 190 193 195 196 197 199 201 203 205 205 205 206 207 208 209 209 209 209 210 210 211 212 212 211 211 211 212 213 215 218 220 220 221 221 221 220 221 222 223 222 222 222 222 221 220 221 223 224 225 226 227 228 229 231 232 233 234 234 233 233 233 233 233
48 69 88 85 77 78 90 100 104 109 119 129 135 142 148 154 158 162 166 172 177 179 181 183 185 187 189 191 193 194 196 199 202 203 203 203 204 205 206 208 208 208 208 208 209 209 210 209 209 209 210 212 213 216 219 221 222 223 224 223 221 221 221 221 220 221 222 221 221 221 223 224 226 228 228 229 230 231 232 234 235 236 236 236 235 234 234 235
57 67 91 97 93 88 90 96 104 114 123 131 137 143 150 154 158 162 166 170 173 176 178 179 180 182 185 187 190 192 194 197 199 199 200 201 202 202 203 205 206 207 208 208 207 207 207 207 207 209 210 211 213 216 219 222 223 224 225 225 224 222 221 220 220 220 221 221 222 223 223 224 226 228 230 230 231 233 234 234 235 236 237 237 237 236 235 235
68 74 91 105 107 105 106 110 117 126 132 138 145 150 154 158 161 163 165 167 170 172 173 174 176 178 181 183 187 190 192 194 195 195 196 198 199 200 201 202 204 205 205 205 205 205 205 206 207 208 209 211 214 217 220 222 224 225 227 227 227 225 223 221 221 221 221 221 223 224 224 225 227 228 230 231 231 233 234 235 235 236 236 237 237 237 237 237
77 84 95 108 113 115 117 121 126 134 140 144 149 152 155 157 158 160 163 166 168 168 169 170 172 174 177 181 185 187 188 189 190 190 191 193 194 196 197 198 199 201 201 201 201 203 205 206 208 209 209 212 215 217 220 222 224 226 227 228 227 225 224 223 223 222 222 222 223 224 224 225 226 228 230 231 231 231 233 234 235 235 236 237 237 238 238 238
Height
10623 10621 10620 10619 10618 10617 10615 10614 10614 10613 10612 10612 10612 10613 10614 10614 10615 10615 10616 10617 10618 10619 10620 10621 10622 10623 10625 10628 10631 10633 10635 10638 10642 10646 10645 10644 10651 10657 10660 10664 10667 10670 10673 10675 10678 10681 10685 10688 10692 10694 10697 10701 10703 10706 10711 10714 10718 10721 10723 10727 10729 10729 10729 10731 10735 10741 10748 10755 10759 10763 10766 10767 10767 10769 10772 10776 10777 10776 10778 10781 10785 10787 10789 10791 10791 10792 10795 10800
10616 10615 10614 10612 10611 10610 10609 10608 10606 10606 10605 10605 10605 10605 10606 10607 10608 10609 10609 10610 10611 10612 10613 10614 10615 10616 10618 10620 10624 10626 10629 10631 10635 10637 10637 10640 10647 10648 10650 10655 10660 10662 10665 10669 10672 10675 10680 10684 10687 10689 10692 10695 10697 10701 10705 10708 10712 10714 10716 10719 10720 10720 10721 10725 10731 10736 10744 10750 10754 10757 10760 10762 10763 10764 10768 10771 10772 10772 10774 10777 10781 10784 10786 10787 10787 10789 10792 10796
10610 10608 10607 10606 10605 10603 10602 10601 10600 10599 10598 10597 10597 10598 10598 10599 10600 10601 10602 10603 10604 10605 10606 10607 10608 10609 10611 10613 10616 10619 10622 10625 10627 10628 10630 10635 10638 10639 10643 10648 10651 10654 10658 10662 10666 10670 10675 10679 10682 10684 10687 10690 10692 10696 10700 10703 10705 10707 10711 10712 10712 10713 10716 10720 10726 10732 10740 10746 10748 10752 10754 10756 10758 10760 10763 10765 10767 10767 10770 10774 10777 10780 10782 10783 10784 10786 10789 10791
10603 10601 10600 10598 10597 10596 10595 10594 10593 10592 10591 10590 10589 10590 10590 10591 10592 10593 10595 10596 10597 10598 10599 10600 10602 10603 10604 10606 10608 10611 10614 10618 10620 10621 10624 10627 10629 10632 10636 10639 10644 10647 10650 10654 10660 10665 10669 10673 10676 10679 10682 10685 10687 10691 10694 10697 10699 10702 10705 10705 10706 10708 10711 10717 10723 10730 10736 10740 10743 10746 10749 10751 10752 10755 10757 10759 10761 10763 10766 10770 10774 10776 10778 10779 10781 10784 10785 10787
10596 10593 10592 10590 10589 10588 10588 10587 10586 10585 10584 10583 10582 10582 10582 10583 10584 10585 10587 10588 10590 10591 10592 10594 10595 10596 10598 10599 10601 10604 10606 10610 10612 10613 10617 10619 10620 10625 10629 10632 10637 10639 10643 10648 10654 10659 10663 10666 10670 10673 10676 10679 10682 10686 10688 10690 10694 10697 10698 10699 10701 10703 10708 10715 10720 10726 10731 10734 10738 10741 10743 10744 10747 10749 10751 10753 10755 10758 10762 10767 10771 10772 10774 10776 10778 10780 10781 10782
10587 10585 10583 10582 10581 10580 10579 10579 10578 10577 10577 10575 10575 10574 10575 10575 10576 10577 10578 10580 10582 10583 10585 10586 10587 10589 10591 10592 10595 10597 10599 10603 10604 10605 10609 10612 10613 10618 10622 10625 10629 10633 10637 10643 10648 10652 10656 10660 10663 10666 10669 10673 10677 10680 10683 10687 10690 10691 10692 10695 10697 10700 10707 10713 10716 10721 10726 10729 10732 10735 10737 10738 10740 10743 10745 10746 10749 10754 10759 10763 10767 10768 10770 10772 10774 10776 10776 10777
10578 10577 10575 10573 10572 10571 10570 10570 10569 10569 10568 10568 10567 10567 10567 10567 10568 10569 10570 10572 10573 10575 10577 10578 10580 10582 10583 10586 10589 10591 10593 10594 10595 10597 10601 10605 10606 10610 10615 10619 10623 10626 10631 10637 10642 10645 10649 10653 10656 10659 10663 10667 10671 10674 10678 10683 10685 10686 10688 10691 10693 10697 10704 10708 10712 10716 10720 10723 10726 10729 10731 10732 10734 10737 10739 10741 10744 10750 10755 10759 10762 10764 10766 10768 10770 10771 10770 10771
10570 10568 10566 10564 10562 10561 10561 10560 10560 10560 10559 10559 10559 10559 10559 10559 10560 10560 10561 10563 10565 10567 10569 10570 10572 10574 10576 10580 10582 10585 10584 10583 10587 10591 10594 10598 10600 10603 10609 10614 10617 10620 10625 10630 10634 10637 10642 10646 10649 10653 10657 10661 10664 10668 10673 10678 10679 10680 10683 10687 10690 10694 10700 10704 10708 10711 10714 10718 10720 10722 10725 10726 10728 10731 10733 10735 10740 10745 10750 10754 10758 10760 10762 10764 10765 10765 10765 10766
10561 10559 10557 10555 10553 10551 10551 10550 10550 10550 10549 10550 10550 10549 10550 10551 10552 10552 10553 10554 10556 10559 10560 10562 10564 10566 10569 10573 10576 10578 10574 10575 10582 10585 10588 10591 10593 10597 10602 10607 10611 10613 10618 10623 10627 10632 10637 10640 10642 10646 10650 10654 10658 10663 10669 10673 10674 10675 10680 10684 10687 10691 10697 10700 10703 10706 10709 10712 10714 10717 10720 10721 10723 10726 10728 10731 10735 10740 10745 10750 10753 10755 10757 10759 10760 10760 10761 10763
10551 10549 10547 10545 10543 10541 10540 10539 10539 10539 10540 10540 10540 10540 10541 10542 10542 10544 10545 10546 10548 10550 10551 10553 10555 10558 10562 10566 10569 10569 10565 10570 10577 10578 10581 10584 10586 10590 10594 10600 10603 10606 10611 10616 10621 10625 10628 10630 10633 10638 10643 10648 10654 10658 10664 10667 10668 10671 10676 10680 10683 10688 10693 10695 10697 10701 10704 10707 10709 10712 10715 10716 10719 10721 10722 10726 10731 10736 10740 10745 10748 10750 10752 10753 10754 10755 10757 10761
10540 10538 10536 10535 10533 10531 10529 10528 10528 10529 10529 10529 10529 10530 10531 10532 10533 10535 10536 10537 10540 10541 10543 10545 10547 10551 10554 10559 10562 10557 10556 10565 10571 10572 10574 10576 10578 10582 10587 10592 10595 10599 10604 10609 10613 10616 10619 10622 10627 10633 10638 10643 10648 10653 10658 10661 10662 10666 10671 10674 10679 10685 10688 10690 10693 10696 10699 10702 10704 10707 10710 10711 10714 10716 10718 10722 10726 10731 10736 10740 10743 10745 10747 10748 10750 10751 10754 10758
10529 10527 10524 10522 10521 10520 10519 10517 10517 10517 10518 10518 10518 10519 10520 10521 10523 10525 10527 10529 10531 10532 10534 10535 10539 10542 10546 10552 10549 10544 10551 10560 10563 10565 10567 10568 10570 10574 10579 10584 10588 10592 10597 10602 10605 10607 10611 10617 10622 10628 10632 10638 10642 10647 10652 10655 10657 10661 10664 10669 10675 10681 10684 10685 10688 10692 10695 10697 10699 10702 10705 10706 10709 10711 10714 10719 10723 10728 10732 10735 10738 10740 10742 10744 10745 10748 10752 10755
10517 10515 10512 10510 10508 10507 10507 10506 10505 10505 10505 10507 10507 10507 10509 10511 10512 10515 10517 10520 10521 10523 10524 10527 10531 10533 10539 10543 10534 10536 10549 10552 10554 10558 10558 10560 10563 10567 10573 10578 10581 10586 10590 10594 10597 10601 10606 10612 10617 10621 10627 10631 10636 10642 10647 10649 10651 10654 10658 10664 10671 10677 10679 10681 10684 10688 10690 10693 10695 10698 10700 10702 10704 10707 10712 10717 10721 10725 10728 10731 10733 10735 10738 10740 10742 10745 10749 10753
10504 10501 10499 10497 10495 10493 10493 10492 10492 10492 10493 10494 10495 10496 10497 10499 10502 10505 10507 10510 10511 10514 10515 10519 10522 10524 10532 10530 10521 10533 10543 10541 10546 10551 10552 10555 10557 10561 10567 10571 10575 10578 10582 10586 10590 10595 10601 10606 10611 10616 10621 10625 10630 10637 10641 10643 10645 10648 10654 10661 10668 10673 10673 10675 10680 10683 10685 10688 10690 10693 10695 10697 10701 10706 10712 10718 10722 10723 10724 10726 10729 10733 10736 10738 10739 10741 10744 10748
10490 10487 10484 10482 10481 10479 10478 10478 10477 10478 10479 10481 10483 10484 10485 10486 10490 10494 10497 10499 10501 10504 10506 10510 10513 10516 10523 10516 10513 10529 10533 10530 10538 10544 10547 10548 10550 10555 10559 10563 10568 10570 10574 10579 10585 10590 10595 10601 10605 10610 10615 10620 10625 10631 10635 10638 10640 10645 10651 10659 10665 10667 10667 10670 10675 10678 10680 10683 10685 10688 10690 10694 10699 10704 10710 10715 10717 10715 10716 10721 10726 10730 10733 10735 10736 10737 10740 10744
10474 10471 10469 10466 10465 10464 10463 10462 10462 10463 10464 10467 10469 10471 10472 10473 10478 10483 10486 10487 10490 10494 10497 10501 10503 10508 10513 10505 10505 10521 10522 10523 10531 10537 10540 10539 10542 10548 10551 10556 10560 10562 10568 10573 10579 10584 10590 10595 10599 10604 10609 10614 10620 10626 10630 10633 10636 10642 10648 10655 10659 10659 10660 10664 10669 10672 10675 10678 10681 10683 10686 10691 10696 10701 10705 10708 10708 10708 10713 10720 10725 10729 10732 10733 10734 10734 10736 10738
10457 10454 10451 10449 10448 10447 10446 10445 10445 10447 10449 10452 10455 10457 10458 10461 10466 10471 10474 10476 10479 10483 10487 10492 10494 10499 10501 10495 10497 10510 10513 10516 10523 10529 10531 10531 10536 10540 10543 10548 10552 10555 10561 10567 10573 10578 10584 10589 10594 10599 10604 10610 10616 10621 10626 10630 10635 10641 10645 10649 10652 10652 10653 10659 10663 10665 10669 10673 10676 10678 10683 10689 10693 10696 10700 10703 10705 10709 10715 10720 10725 10730 10732 10733 10732 10729 10730 10733
10439 10435 10432 10430 10429 10428 10428 10427 10428 10429 10432 10436 10439 10441 10443 10448 10454 10458 10462 10465 10468 10472 10477 10481 10484 10488 10489 10486 10490 10498 10503 10507 10513 10518 10522 10524 10528 10532 10536 10541 10544 10548 10554 10560 10566 10571 10578 10583 10587 10593 10599 10607 10613 10619 10625 10629 10631 10634 10637 10641 10642 10643 10647 10652 10655 10659 10664 10668 10671 10674 10680 10685 10689 10693 10696 10699 10704 10708 10713 10719 10725 10731 10734 10735 10732 10725 10724 10727
10419 10415 10413 10410 10409 10408 10408 10409 10410 10411 10415 10419 10423 10425 10427 10434 10442 10445 10449 10454 10458 10461 10466 10471 10474 10477 10479 10478 10481 10485 10491 10498 10504 10509 10514 10516 10520 10525 10529 10533 10537 10542 10547 10554 10560 10566 10572 10577 10582 10590 10599 10606 10611 10615 10619 10620 10621 10624 10627 10630 10633 10635 10640 10645 10648 10653 10659 10664 10666 10669 10675 10681 10685 10689 10692 10696 10701 10706 10711 10718 10726 10733 10735 10735 10731 10722 10719 10721
10398 10394 10392 10390 10388 10388 10388 10390 10391 10393 10397 10402 10406 10409 10412 10420 10428 10432 10436 10442 10446 10449 10455 10460 10462 10465 10467 10469 10470 10472 10479 10490 10496 10500 10506 10509 10513 10517 10521 10526 10531 10536 10542 10549 10554 10560 10565 10571 10580 10589 10594 10598 10601 10605 10608 10610 10612 10615 10619 10623 10626 10630 10634 10638 10643 10648 10653 10659 10661 10664 10671 10676 10681 10685 10688 10694 10700 10704 10710 10718 10727 10731 10727 10721 10716 10712 10711 10714
10378 10374 10371 10369 10368 10368 10369 10371 10373 10375 10379 10384 10389 10394 10397 10404 10414 10419 10423 10429 10434 10437 10443 10447 10450 10453 10456 10457 10459 10461 10469 10481 10487 10492 10498 10502 10506 10511 10515 10520 10526 10531 10537 10542 10548 10553 10559 10569 10578 10582 10583 10586 10590 10594 10598 10602 10604 10609 10613 10617 10621 10624 10629 10634 10639 10643 10648 10654 10656 10660 10666 10671 10676 10681 10686 10692 10697 10702 10707 10715 10719 10717 10711 10707 10703 10700 10701 10710
10358 10354 10351 10350 10349 10349 10350 10353 10355 10358 10361 10367 10373 10378 10383 10390 10399 10405 10410 10416 10420 10424 10429 10435 10440 10442 10443 10446 10448 10453 10463 10472 10479 10485 10491 10495 10499 10505 10509 10514 10520 10526 10530 10535 10542 10549 10557 10567 10571 10572 10575 10578 10582 10587 10591 10595 10598 10603 10607 10611 10615 10619 10623 10630 10635 10639 10644 10649 10652 10655 10660 10666 10672 10678 10684 10689 10694 10697 10701 10705 10704 10701 10700 10701 10699 10696 10700 10710
10340 10337 10334 10333 10332 10332 10334 10336 10339 10342 10345 10351 10358 10363 10368 10376 10384 10389 10396 10403 10405 10410 10417 10424 10429 10428 10429 10436 10440 10448 10457 10463 10470 10478 10483 10488 10492 10498 10502 10507 10514 10518 10524 10531 10538 10544 10553 10560 10562 10563 10568 10571 10576 10581 10586 10590 10593 10598 10602 10606 10611 10614 10618 10624 10630 10635 10639 10643 10646 10650 10655 10661 10667 10674 10680 10686 10689 10691 10693 10696 10696 10695 10697 10698 10696 10698 10703 10707
10324 10321 10319 10317 10317 10317 10318 10320 10323 10326 10330 10337 10343 10349 10354 10361 10369 10374 10381 10389 10392 10397 10405 10412 10417 10415 10417 10428 10434 10442 10448 10452 10462 10470 10475 10480 10484 10490 10496 10500 10506 10512 10518 10525 10530 10537 10545 10550 10551 10554 10559 10564 10570 10575 10580 10586 10589 10594 10598 10602 10605 10607 10611 10618 10624 10629 10633 10637 10641 10645 10651 10657 10664 10670 10676 10680 10683 10685 10687 10690 10691 10691 10694 10694 10694 10697 10701 10701
10309 10307 10304 10303 10303 10302 10304 10305 10307 10310 10316 10323 10329 10334 10340 10347 10354 10359 10367 10377 10380 10384 10393 10400 10403 10402 10407 10422 10429 10433 10439 10445 10454 10461 10466 10472 10475 10482 10489 10493 10499 10506 10512 10518 10523 10529 10536 10541 10543 10547 10552 10557 10564 10570 10576 10581 10584 10588 10593 10596 10599 10601 10605 10612 10619 10624 10628 10632 10635 10639 10646 10654 10660 10665 10671 10675 10677 10679 10681 10685 10686 10686 10689 10689 10690 10694 10696 10697
10295 10293 10291 10289 10288 10288 10289 10290 10292 10297 10302 10308 10314 10318 10327 10334 10338 10343 10354 10365 10367 10371 10381 10388 10390 10392 10402 10415 10420 10423 10431 10435 10442 10450 10456 10462 10466 10473 10480 10485 10493 10499 10504 10510 10516 10522 10529 10535 10537 10541 10547 10551 10557 10564 10570 10574 10577 10582 10587 10589 10592 10594 10598 10606 10613 10618 10623 10627 10630 10634 10642 10650 10654 10660 10665 10669 10671 10673 10676 10679 10680 10681 10683 10685 10687 10689 10690 10693
10282 10279 10277 10276 10275 10274 10275 10277 10280 10284 10287 10293 10298 10303 10313 10319 10321 10330 10341 10351 10355 10358 10369 10376 10379 10385 10396 10405 10411 10416 10422 10425 10433 10444 10450 10454 10459 10465 10472 10479 10486 10491 10497 10503 10510 10518 10524 10529 10531 10536 10542 10546 10553 10560 10564 10568 10572 10578 10581 10582 10585 10588 10592 10599 10606 10612 10618 10622 10625 10630 10638 10645 10649 10655 10661 10663 10665 10668 10671 10674 10674 10675 10677 10680 10682 10683 10685 10690
10269 10267 10265 10263 10262 10262 10262 10265 10267 10270 10274 10279 10283 10290 10300 10303 10307 10319 10329 10338 10342 10347 10358 10366 10369 10377 10388 10396 10403 10408 10412 10417 10427 10437 10440 10444 10451 10458 10466 10473 10478 10484 10489 10497 10506 10513 10518 10523 10527 10531 10536 10542 10549 10554 10558 10561 10566 10571 10572 10574 10578 10579 10584 10591 10599 10606 10611 10615 10620 10626 10634 10640 10645 10651 10656 10658 10660 10663 10667 10669 10668 10668 10672 10675 10677 10678 10681 10684
10258 10256 10253 10251 10251 10251 10252 10253 10255 10258 10262 10266 10271 10280 10285 10288 10297 10309 10318 10326 10332 10338 10348 10356 10362 10370 10379 10387 10393 10397 10402 10409 10420 10427 10430 10437 10445 10451 10459 10466 10470 10475 10481 10489 10498 10503 10509 10515 10518 10522 10529 10536 10541 10545 10549 10553 10559 10563 10563 10565 10569 10572 10577 10585 10593 10600 10605 10611 10619 10624 10629 10635 10640 10645 10649 10653 10656 10658 10660 10661 10661 10662 10666 10669 10671 10674 10676 10677
10248 10246 10243 10241 10241 10242 10242 10243 10245 10248 10251 10255 10262 10268 10271 10278 10290 10300 10309 10317 10322 10329 10339 10348 10355 10362 10370 10379 10384 10390 10396 10402 10411 10419 10423 10431 10438 10444 10451 10457 10462 10467 10473 10482 10490 10496 10502 10507 10510 10515 10522 10528 10531 10535 10540 10544 10550 10554 10555 10558 10563 10567 10573 10580 10588 10595 10601 10611 10619 10620 10624 10630 10635 10640 10643 10647 10649 10650 10652 10655 10655 10656 10660 10663 10665 10668 10670 10671
10239 10237 10235 10233 10233 10232 10233 10234 10235 10237 10241 10246 10252 10256 10261 10271 10282 10291 10300 10307 10313 10322 10331 10339 10347 10353 10361 10370 10377 10383 10390 10396 10405 10413 10417 10424 10432 10438 10445 10451 10456 10461 10468 10477 10485 10492 10497 10502 10507 10511 10516 10521 10524 10528 10533 10536 10543 10548 10549 10552 10557 10562 10568 10575 10583 10589 10600 10612 10616 10615 10620 10627 10633 10636 10638 10641 10643 10644 10648 10651 10650 10650 10653 10657 10660 10663 10665 10669
10232 10229 10227 10226 10225 10224 10225 10226 10227 10229 10234 10239 10242 10247 10255 10265 10275 10284 10292 10298 10306 10315 10322 10330 10339 10346 10355 10364 10370 10376 10383 10390 10398 10406 10410 10417 10426 10432 10439 10447 10453 10459 10467 10476 10483 10488 10492 10498 10503 10506 10510 10515 10519 10523 10528 10532 10539 10544 10544 10547 10554 10560 10565 10573 10581 10590 10602 10611 10611 10611 10618 10624 10630 10632 10632 10635 10638 10640 10643 10645 10645 10645 10648 10652 10656 10660 10663 10666
10225 10222 10220 10219 10218 10218 10218 10219 10220 10223 10228 10232 10235 10241 10251 10260 10268 10275 10282 10290 10297 10305 10314 10323 10331 10339 10347 10355 10362 10368 10375 10383 10391 10398 10403 10410 10419 10425 10431 10439 10445 10453 10462 10469 10475 10482 10488 10493 10498 10501 10505 10511 10516 10520 10526 10533 10539 10543 10545 10548 10555 10561 10567 10574 10582 10591 10600 10605 10606 10608 10613 10620 10626 10627 10627 10630 10632 10634 10638 10640 10640 10642 10644 10648 10653 10657 10660 10663
10218 10216 10215 10213 10212 10212 10212 10213 10215 10218 10222 10226 10230 10237 10246 10252 10259 10266 10274 10281 10288 10298 10308 10316 10324 10332 10339 10346 10354 10361 10368 10376 10384 10391 10397 10404 10413 10420 10426 10433 10438 10446 10453 10458 10465 10474 10481 10488 10495 10498 10502 10507 10513 10517 10523 10527 10530 10536 10540 10543 10550 10558 10565 10573 10579 10586 10593 10599 10601 10603 10608 10616 10621 10623 10623 10625 10626 10630 10633 10634 10636 10638 10639 10643 10649 10652 10654 10657
10213 10211 10209 10208 10207 10207 10207 10208 10210 10213 10217 10221 10226 10233 10239 10245 10251 10260 10268 10274 10282 10293 10303 10310 10317 10324 10332 10340 10347 10355 10362 10369 10377 10384 10391 10399 10407 10414 10422 10428 10433 10440 10447 10452 10460 10467 10474 10481 10488 10492 10496 10502 10507 10511 10515 10517 10521 10528 10531 10534 10544 10553 10559 10565 10570 10577 10584 10591 10595 10598 10604 10613 10617 10618 10619 10619 10622 10625 10628 10629 10631 10633 10634 10637 10642 10645 10647 10652
10209 10206 10205 10204 10203 10203 10204 10205 10207 10210 10214 10218 10224 10228 10233 10239 10246 10254 10261 10268 10277 10288 10296 10302 10309 10317 10326 10334 10341 10349 10357 10364 10372 10378 10385 10392 10400 10407 10414 10421 10427 10435 10441 10447 10455 10463 10470 10476 10479 10483 10488 10494 10499 10504 10508 10512 10519 10525 10527 10533 10541 10546 10552 10558 10564 10570 10576 10583 10589 10593 10600 10608 10611 10613 10614 10614 10617 10620 10623 10625 10627 10628 10629 10631 10635 10639 10643 10648
10205 10203 10201 10200 10200 10200 10201 10202 10205 10208 10211 10216 10220 10224 10229 10235 10242 10249 10256 10263 10272 10282 10289 10295 10303 10312 10321 10329 10336 10344 10352 10359 10366 10373 10380 10387 10394 10401 10408 10415 10421 10428 10434 10441 10448 10457 10464 10469 10474 10479 10482 10486 10491 10495 10499 10505 10512 10518 10524 10529 10532 10537 10545 10552 10557 10564 10571 10579 10586 10589 10595 10603 10606 10608 10610 10610 10612 10616 10619 10621 10622 10623 10624 10627 10631 10634 10638 10641
10202 10200 10199 10198 10197 10198 10199 10201 10203 10206 10209 10212 10217 10221 10226 10232 10240 10246 10252 10259 10268 10276 10282 10290 10300 10309 10317 10324 10332 10340 10347 10354 10361 10368 10375 10382 10389 10396 10403 10410 10416 10422 10428 10435 10442 10450 10456 10462 10467 10472 10477 10480 10484 10488 10493 10499 10506 10512 10516 10517 10520 10531 10543 10549 10555 10563 10570 10577 10583 10586 10593 10598 10601 10604 10606 10606 10608 10610 10613 10615 10617 10618 10619 10622 10626 10628 10631 10635
10201 10199 10197 10197 10196 10197 10198 10200 10203 10205 10207 10211 10216 10220 10225 10231 10237 10242 10248 10256 10265 10272 10280 10289 10299 10307 10314 10321 10328 10335 10342 10350 10357 10364 10371 10378 10385 10391 10397 10405 10411 10417 10424 10430 10437 10444 10450 10456 10462 10466 10470 10474 10477 10484 10490 10496 10501 10506 10509 10511 10518 10530 10540 10545 10552 10560 10566 10574 10579 10583 10589 10594 10597 10600 10601 10601 10602 10605 10607 10610 10612 10613 10614 10617 10620 10623 10626 10631
10200 10198 10197 10196 10197 10197 10198 10200 10203 10205 10208 10211 10216 10220 10225 10230 10235 10240 10246 10255 10264 10272 10281 10289 10297 10304 10311 10317 10324 10331 10338 10345 10352 10359 10366 10373 10380 10386 10393 10400 10406 10412 10419 10424 10431 10439 10445 10452 10457 10460 10464 10469 10476 10484 10489 10491 10497 10503 10509 10514 10520 10529 10536 10540 10547 10555 10562 10570 10575 10579 10585 10590 10592 10595 10596 10595 10597 10600 10603 10605 10607 10608 10611 10613 10616 10620 10624 10628
10199 10198 10197 10197 10197 10198 10199 10200 10203 10205 10208 10211 10215 10220 10225 10229 10233 10239 10247 10256 10265 10273 10280 10288 10294 10301 10307 10314 10321 10327 10334 10341 10348 10355 10362 10369 10376 10382 10389 10396 10402 10408 10414 10420 10428 10435 10441 10448 10452 10455 10461 10469 10475 10479 10482 10485 10492 10499 10504 10509 10515 10522 10530 10536 10544 10553 10560 10565 10570 10574 10580 10584 10587 10589 10590 10590 10593 10597 10599 10601 10602 10604 10606 10608 10611 10616 10620 10624
10200 10198 10198 10198 10198 10199 10199 10201 10203 10206 10208 10212 10215 10220 10224 10228 10234 10242 10250 10258 10266 10272 10279 10286 10293 10299 10305 10311 10318 10324 10330 10337 10344 10351 10358 10365 10371 10377 10384 10390 10397 10403 10409 10416 10423 10430 10435 10441 10446 10451 10457 10463 10467 10471 10476 10481 10486 10491 10495 10499 10504 10512 10522 10532 10543 10552 10556 10561 10566 10569 10574 10578 10581 10584 10585 10586 10588 10592 10595 10597 10599 10600 10602 10604 10607 10612 10617 10621
10201 10199 10199 10199 10199 10199 10200 10201 10204 10207 10209 10212 10216 10220 10224 10229 10236 10245 10252 10259 10266 10272 10279 10286 10292 10297 10304 10309 10315 10321 10328 10335 10341 10348 10354 10359 10366 10373 10379 10386 10392 10398 10405 10411 10418 10424 10429 10434 10440 10446 10451 10456 10460 10463 10467 10473 10478 10484 10491 10496 10502 10511 10520 10527 10535 10540 10544 10552 10560 10563 10568 10573 10576 10578 10580 10581 10584 10588 10592 10594 10595 10596 10598 10600 10604 10609 10613 10617
10202 10201 10200 10201 10201 10201 10201 10202 10204 10207 10210 10213 10217 10221 10226 10232 10239 10246 10253 10260 10266 10273 10279 10285 10291 10297 10303 10308 10314 10320 10326 10332 10338 10344 10350 10355 10362 10369 10375 10382 10388 10395 10402 10407 10414 10420 10425 10430 10435 10440 10446 10452 10456 10458 10464 10472 10479 10486 10493 10497 10502 10508 10514 10519 10525 10529 10536 10547 10554 10557 10562 10568 10570 10573 10575 10577 10579 10583 10587 10589 10590 10591 10594 10597 10601 10604 10608 10612
10204 10203 10202 10203 10203 10204 10204 10205 10206 10209 10212 10215 10219 10223 10229 10236 10242 10248 10254 10261 10267 10274 10280 10285 10290 10295 10301 10306 10312 10317 10324 10329 10335 10341 10346 10351 10358 10365 10371 10378 10385 10392 10396 10401 10408 10414 10419 10424 10430 10437 10444 10452 10459 10464 10471 10478 10483 10486 10489 10494 10499 10503 10509 10516 10521 10528 10538 10546 10550 10553 10560 10564 10565 10568 10571 10573 10575 10578 10581 10583 10585 10586 10589 10592 10596 10599 10602 10606
10206 10205 10205 10205 10206 10206 10207 10208 10210 10212 10214 10218 10222 10227 10233 10240 10245 10251 10257 10263 10269 10275 10280 10284 10289 10294 10299 10304 10309 10315 10321 10327 10332 10337 10341 10348 10355 10362 10367 10374 10380 10386 10391 10397 10404 10410 10414 10420 10427 10435 10441 10448 10455 10459 10464 10469 10474 10479 10484 10490 10495 10499 10504 10510 10517 10528 10538 10542 10546 10552 10557 10558 10560 10563 10566 10569 10571 10572 10575 10577 10579 10581 10584 10587 10590 10593 10596 10599
10209 10208 10207 10208 10209 10210 10210 10212 10213 10215 10218 10222 10227 10232 10238 10243 10248 10254 10260 10265 10270 10274 10278 10282 10287 10293 10298 10303 10308 10314 10319 10324 10329 10333 10338 10346 10353 10359 10365 10371 10376 10381 10387 10393 10401 10406 10412 10418 10425 10432 10437 10442 10447 10449 10453 10460 10466 10472 10477 10482 10487 10492 10497 10505 10516 10527 10533 10536 10543 10548 10550 10553 10556 10559 10561 10564 10566 10568 10570 10572 10575 10577 10580 10583 10585 10588 10591 10594
10213 10211 10211 10211 10212 10213 10214 10215 10217 10220 10223 10228 10232 10237 10242 10247 10252 10257 10262 10266 10270 10274 10278 10283 10288 10293 10298 10303 10308 10313 10318 10323 10327 10331 10337 10345 10351 10357 10363 10368 10373 10378 10384 10390 10397 10403 10408 10414 10421 10428 10433 10438 10443 10448 10453 10458 10464 10468 10472 10476 10481 10486 10493 10503 10515 10522 10525 10531 10538 10542 10544 10548 10550 10553 10556 10559 10561 10563 10565 10568 10571 10574 10577 10580 10582 10584 10587 10590
10216 10215 10214 10214 10216 10218 10219 10220 10222 10225 10229 10234 10238 10242 10247 10251 10256 10261 10264 10268 10271 10275 10279 10284 10289 10293 10298 10302 10307 10312 10316 10321 10325 10331 10337 10344 10349 10355 10360 10366 10371 10377 10382 10388 10394 10400 10405 10411 10417 10424 10429 10435 10441 10447 10452 10456 10461 10465 10469 10472 10477 10482 10490 10500 10508 10513 10518 10525 10531 10534 10539 10543 10545 10548 10551 10554 10557 10560 10563 10566 10569 10571 10573 10575 10578 10580 10583 10585
10220 10219 10218 10217 10219 10221 10223 10225 10227 10231 10234 10238 10241 10245 10249 10253 10257 10260 10264 10268 10272 10276 10280 10284 10289 10294 10298 10303 10307 10311 10316 10320 10325 10331 10337 10343 10348 10353 10358 10364 10369 10375 10380 10386 10392 10397 10402 10408 10414 10420 10427 10433 10439 10445 10449 10453 10457 10462 10465 10469 10474 10479 10487 10494 10500 10505 10512 10520 10524 10528 10534 10538 10540 10543 10546 10549 10553 10555 10558 10562 10564 10566 10568 10570 10573 10576 10578 10581
10223 10223 10223 10222 10221 10223 10225 10228 10231 10234 10237 10240 10243 10246 10250 10253 10257 10261 10264 10268 10272 10277 10281 10286 10290 10294 10299 10303 10307 10311 10315 10320 10325 10331 10337 10342 10347 10352 10357 10362 10367 10373 10378 10384 10390 10395 10400 10405 10411 10418 10425 10432 10436 10441 10445 10449 10454 10458 10463 10466 10471 10477 10484 10490 10496 10502 10509 10515 10518 10523 10529 10533 10535 10537 10540 10543 10547 10550 10553 10556 10558 10561 10563 10565 10568 10570 10573 10575
10226 10227 10227 10227 10226 10227 10228 10231 10235 10238 10240 10243 10247 10250 10254 10258 10261 10265 10268 10271 10274 10278 10283 10287 10291 10295 10299 10303 10306 10311 10316 10321 10326 10331 10336 10341 10346 10351 10355 10360 10366 10371 10377 10383 10388 10393 10398 10404 10410 10416 10423 10428 10432 10437 10441 10445 10451 10456 10460 10463 10468 10474 10481 10486 10492 10498 10504 10508 10512 10518 10523 10525 10527 10531 10534 10537 10541 10545 10547 10549 10551 10554 10556 10559 10563 10565 10567 10569